| time (UTC) | temp C | wind direction | speed KPH | gust KPH | rain 1hr cm | rain 24hr cm | rain mn cm | humidity % | barometer mb |
| 20260510021741 | 7 | 160 | 0.0 | 0.0 | 0.00 | 0.00 | 1.24 | 95 | |
| 20260510020741 | 7 | 160 | 0.0 | 0.0 | 0.00 | 0.00 | 1.24 | 95 | |
| 20260510015741 | 8 | 160 | 0.0 | 0.0 | 0.00 | 0.00 | 1.24 | 95 | |
| 20260510014741 | 8 | 160 | 0.0 | 0.0 | 0.00 | 0.00 | 1.24 | 95 | |
| 20260510013741 | 8 | 160 | 0.0 | 0.0 | 0.00 | 0.00 | 1.24 | 95 | |
| 20260510012741 | 8 | 160 | 0.0 | 3.2 | 0.00 | 0.00 | 1.24 | 94 | |
| 20260510011741 | 8 | 160 | 0.0 | 3.2 | 0.00 | 0.00 | 1.24 | 95 | |
| 20260510010741 | 9 | 160 | 1.6 | 1.6 | 0.00 | 0.00 | 1.24 | 94 | |
| 20260510005741 | 9 | 160 | 0.0 | 1.6 | 0.00 | 0.00 | 1.24 | 94 | |
| 20260510004741 | 10 | 160 | 0.0 | 3.2 | 0.00 | 0.00 | 1.24 | 94 | |
| 20260510003742 | 10 | 160 | 0.0 | 1.6 | 0.00 | 0.00 | 1.24 | 94 | |
| 20260510002741 | 10 | 160 | 1.6 | 3.2 | 0.00 | 0.00 | 1.24 | 93 | |
| 20260510001741 | 10 | 160 | 3.2 | 4.8 | 0.00 | 0.00 | 1.24 | 93 | |
| 20260510000741 | 11 | 228 | 1.6 | 4.8 | 0.00 | 0.00 | 1.24 | 92 | |
| 20260509235741 | 11 | 229 | 1.6 | 1.6 | 0.00 | 0.00 | 1.24 | 91 | |
| 20260509234741 | 12 | 229 | 0.0 | 4.8 | 0.00 | 0.00 | 1.24 | 90 | |
| 20260509233741 | 12 | 229 | 0.0 | 9.7 | 0.00 | 0.00 | 1.24 | 89 | |
| 20260509232741 | 12 | 254 | 4.8 | 9.7 | 0.00 | 0.00 | 1.24 | 89 | |
| 20260509231741 | 13 | 216 | 1.6 | 14.5 | 0.00 | 0.00 | 1.24 | 88 | |
| 20260509230741 | 13 | 232 | 4.8 | 14.5 | 0.00 | 0.00 | 1.24 | 89 | |
| 20260509225742 | 13 | 238 | 3.2 | 11.3 | 0.00 | 0.00 | 1.24 | 91 | |
| 20260509224741 | 13 | 281 | 1.6 | 12.9 | 0.00 | 0.00 | 1.24 | 92 | |
| 20260509223741 | 12 | 244 | 3.2 | 16.1 | 0.00 | 0.00 | 1.24 | 92 | |
| 20260509222741 | 12 | 233 | 4.8 | 11.3 | 0.00 | 0.00 | 1.24 | 93 | |
| 20260509221741 | 12 | 241 | 6.4 | 16.1 | 0.00 | 0.00 | 1.24 | 95 | |
| 20260509220741 | 12 | 269 | 1.6 | 12.9 | 0.00 | 0.00 | 1.22 | 95 | |
| 20260509215741 | 11 | 217 | 6.4 | 14.5 | 0.00 | 0.00 | 1.22 | 95 | |
| 20260509214741 | 11 | 239 | 4.8 | 11.3 | 0.00 | 0.00 | 1.22 | 95 | |
| 20260509213741 | 11 | 209 | 4.8 | 9.7 | 0.00 | 0.00 | 1.22 | 95 | |
| 20260509212741 | 11 | 224 | 1.6 | 8.0 | 0.00 | 0.00 | 1.22 | 95 | |
| 20260509211741 | 11 | 182 | 1.6 | 9.7 | 0.00 | 0.00 | 1.22 | 95 | |
| 20260509210741 | 11 | 225 | 4.8 | 19.3 | 0.00 | 0.00 | 1.22 | 94 | |
| 20260509205742 | 11 | 236 | 9.7 | 17.7 | 0.00 | 0.00 | 1.22 | 94 | |
| 20260509204741 | 11 | 242 | 6.4 | 16.1 | 0.00 | 0.00 | 1.22 | 94 | |
| 20260509203741 | 11 | 264 | 3.2 | 11.3 | 0.00 | 0.00 | 1.22 | 95 | |
| 20260509202742 | 11 | 219 | 4.8 | 14.5 | 0.00 | 0.00 | 1.22 | 94 | |
| 20260509201741 | 11 | 219 | 1.6 | 16.1 | 0.00 | 0.00 | 1.22 | 95 | |
| 20260509200741 | 11 | 292 | 3.2 | 16.1 | 0.00 | 0.00 | 1.19 | 95 | |
| 20260509195741 | 11 | 207 | 1.6 | 12.9 | 0.00 | 0.00 | 1.19 | 95 | |
| 20260509194740 | 11 | 228 | 3.2 | 22.5 | 0.00 | 0.00 | 1.17 | 94 | |
| 20260509193741 | 11 | 275 | 6.4 | 19.3 | 0.00 | 0.00 | 1.14 | 94 | |
| 20260509192741 | 11 | 196 | 6.4 | 17.7 | 0.00 | 0.00 | 1.14 | 94 | |
| 20260509191740 | 10 | 252 | 6.4 | 19.3 | 0.00 | 0.00 | 1.12 | 94 | |
| 20260509190740 | 10 | 216 | 8.0 | 16.1 | 0.00 | 0.00 | 1.12 | 93 | |
| 20260509185740 | 10 | 194 | 3.2 | 19.3 | 0.00 | 0.00 | 1.09 | 93 | |
| 20260509184740 | 11 | 226 | 16.1 | 29.0 | 0.00 | 0.00 | 1.07 | 93 | |
| 20260509183740 | 11 | 212 | 12.9 | 16.1 | 0.00 | 0.00 | 1.07 | 94 | |
| 20260509182741 | 11 | 277 | 6.4 | 16.1 | 0.00 | 0.00 | 1.04 | 94 | |
| 20260509181740 | 11 | 248 | 4.8 | 20.9 | 0.00 | 0.00 | 1.02 | 94 | |
| 20260509180741 | 11 | 216 | 9.7 | 17.7 | 0.00 | 0.00 | 0.97 | 94 | |
| 20260509175740 | 11 | 298 | 4.8 | 19.3 | 0.00 | 0.00 | 0.97 | 95 | |
| 20260509174740 | 11 | 202 | 8.0 | 12.9 | 0.00 | 0.00 | 0.94 | 95 | |
| 20260509173741 | 11 | 252 | 3.2 | 11.3 | 0.00 | 0.00 | 0.91 | 95 | |
| 20260509172741 | 11 | 288 | 6.4 | 12.9 | 0.00 | 0.00 | 0.91 | 95 | |
| 20260509171740 | 11 | 229 | 4.8 | 17.7 | 0.00 | 0.00 | 0.91 | 95 | |
| 20260509170740 | 11 | 210 | 4.8 | 14.5 | 0.00 | 0.00 | 0.89 | 95 | |
| 20260509165740 | 11 | 208 | 4.8 | 9.7 | 0.00 | 0.00 | 0.84 | 94 | |
| 20260509164740 | 11 | 227 | 6.4 | 11.3 | 0.00 | 0.00 | 0.79 | 94 | |
| 20260509163744 | 11 | 242 | 1.6 | 8.0 | 0.00 | 0.00 | 0.71 | 95 | |
| 20260509162740 | 11 | 257 | 1.6 | 4.8 | 0.00 | 0.00 | 0.69 | 94 | |
| 20260509161740 | 11 | 258 | 0.0 | 4.8 | 0.00 | 0.00 | 0.66 | 94 | |
| 20260509160740 | 11 | 277 | 0.0 | 0.0 | 0.00 | 0.00 | 0.64 | 95 | |
| 20260509155740 | 11 | 279 | 0.0 | 3.2 | 0.00 | 0.00 | 0.64 | 95 | |
| 20260509154740 | 10 | 279 | 3.2 | 4.8 | 0.00 | 0.00 | 0.61 | 95 | |
| 20260509153740 | 10 | 287 | 0.0 | 3.2 | 0.00 | 0.00 | 0.61 | 96 | |
| 20260509152740 | 10 | 42 | 0.0 | 0.0 | 0.00 | 0.00 | 0.61 | 96 | |
| 20260509151740 | 10 | 43 | 0.0 | 1.6 | 0.00 | 0.00 | 0.58 | 96 | |
| 20260509150740 | 10 | 46 | 0.0 | 0.0 | 0.00 | 0.00 | 0.58 | 96 | |
| 20260509145740 | 10 | 46 | 0.0 | 0.0 | 0.00 | 0.00 | 0.56 | 96 | |
| 20260509144740 | 10 | 46 | 0.0 | 0.0 | 0.00 | 0.00 | 0.56 | 96 | |
| 20260509143740 | 10 | 46 | 0.0 | 0.0 | 0.00 | 0.00 | 0.56 | 97 | |
| 20260509142740 | 10 | 46 | 0.0 | 0.0 | 0.00 | 0.00 | 0.53 | 96 | |
| 20260509141740 | 10 | 46 | 0.0 | 0.0 | 0.00 | 0.00 | 0.51 | 96 | |
| 20260509140740 | 10 | 46 | 0.0 | 0.0 | 0.00 | 0.00 | 0.48 | 96 | |
| 20260509135740 | 10 | 46 | 0.0 | 0.0 | 0.00 | 0.00 | 0.46 | 96 | |
| 20260509134740 | 9 | 46 | 0.0 | 3.2 | 0.00 | 0.00 | 0.43 | 96 | |
| 20260509133740 | 9 | 44 | 0.0 | 3.2 | 0.00 | 0.00 | 0.41 | 96 | |
| 20260509132742 | 9 | 44 | 3.2 | 4.8 | 0.00 | 0.00 | 0.38 | 96 | |
| 20260509131741 | 9 | 50 | 0.0 | 1.6 | 0.00 | 0.00 | 0.36 | 96 | |
| 20260509130740 | 9 | 50 | 0.0 | 3.2 | 0.00 | 0.00 | 0.33 | 96 | |
| 20260509125740 | 9 | 50 | 0.0 | 1.6 | 0.00 | 0.00 | 0.30 | 96 | |
| 20260509124740 | 9 | 50 | 0.0 | 1.6 | 0.00 | 0.00 | 0.28 | 97 | |
| 20260509123740 | 8 | 50 | 0.0 | 1.6 | 0.00 | 0.00 | 0.25 | 96 | |
| 20260509122740 | 8 | 50 | 0.0 | 3.2 | 0.00 | 0.00 | 0.25 | 96 | |
| 20260509121740 | 8 | 50 | 1.6 | 3.2 | 0.00 | 0.00 | 0.25 | 96 | |
| 20260509120740 | 8 | 50 | 1.6 | 4.8 | 0.00 | 0.00 | 0.25 | 97 | |
| 20260509115740 | 8 | 69 | 0.0 | 0.0 | 0.00 | 0.00 | 0.25 | 96 | |
| 20260509114740 | 8 | 68 | 0.0 | 0.0 | 0.00 | 0.00 | 0.25 | 96 | |
| 20260509113740 | 8 | 68 | 0.0 | 4.8 | 0.00 | 0.00 | 0.25 | 96 | |
| 20260509112740 | 8 | 71 | 1.6 | 4.8 | 0.00 | 0.00 | 0.25 | 96 | |
| 20260509111742 | 7 | 74 | 0.0 | 0.0 | 0.00 | 0.00 | 0.25 | 96 | |
| 20260509110740 | 7 | 74 | 0.0 | 0.0 | 0.00 | 0.00 | 0.25 | 96 | |
| 20260509105740 | 7 | 74 | 0.0 | 0.0 | 0.00 | 0.00 | 0.25 | 96 | |
| 20260509104740 | 7 | 74 | 0.0 | 0.0 | 0.00 | 0.00 | 0.25 | 96 | |
| 20260509103740 | 7 | 74 | 0.0 | 0.0 | 0.00 | 0.00 | 0.25 | 96 | |
| 20260509102740 | 7 | 74 | 0.0 | 0.0 | 0.00 | 0.00 | 0.25 | 96 | |
| 20260509101740 | 7 | 74 | 0.0 | 0.0 | 0.00 | 0.00 | 0.25 | 96 | |
| 20260509100740 | 7 | 74 | 0.0 | 3.2 | 0.00 | 0.00 | 0.23 | 96 | |
| 20260509095740 | 7 | 74 | 0.0 | 3.2 | 0.00 | 0.00 | 0.23 | 96 | |
| 20260509094740 | 7 | 74 | 1.6 | 3.2 | 0.00 | 0.00 | 0.23 | 96 | |
| 20260509093740 | 7 | 74 | 0.0 | 3.2 | 0.00 | 0.00 | 0.23 | 96 | |
| 20260509092740 | 7 | 74 | 0.0 | 1.6 | 0.00 | 0.00 | 0.23 | 96 | |
| 20260509091740 | 7 | 74 | 0.0 | 1.6 | 0.00 | 0.00 | 0.23 | 96 | |
| 20260509090740 | 7 | 74 | 0.0 | 3.2 | 0.00 | 0.00 | 0.23 | 96 | |
| 20260509085740 | 7 | 74 | 1.6 | 3.2 | 0.00 | 0.00 | 0.23 | 96 | |
| 20260509084741 | 7 | 74 | 0.0 | 1.6 | 0.00 | 0.00 | 0.23 | 95 | |
| 20260509083742 | 7 | 74 | 0.0 | 1.6 | 0.00 | 0.00 | 0.23 | 95 | |
| 20260509082741 | 7 | 74 | 0.0 | 3.2 | 0.00 | 0.00 | 0.23 | 95 | |
| 20260509081740 | 7 | 74 | 0.0 | 0.0 | 0.00 | 0.00 | 0.23 | 95 | |
| 20260509080740 | 7 | 74 | 0.0 | 1.6 | 0.00 | 0.00 | 0.20 | 95 | |
| 20260509075740 | 7 | 74 | 0.0 | 3.2 | 0.00 | 0.00 | 0.20 | 95 | |
| 20260509074740 | 7 | 74 | 1.6 | 4.8 | 0.00 | 0.00 | 0.20 | 95 | |
| 20260509073740 | 7 | 84 | 3.2 | 4.8 | 0.00 | 0.00 | 0.20 | 95 | |
| 20260509072740 | 7 | 145 | 0.0 | 1.6 | 0.00 | 0.00 | 0.18 | 95 | |
| 20260509071740 | 7 | 145 | 1.6 | 3.2 | 0.00 | 0.00 | 0.15 | 94 | |
| 20260509070740 | 7 | 146 | 0.0 | 0.0 | 0.00 | 0.00 | 0.15 | 94 | |
| 20260509065740 | 7 | 146 | 0.0 | 0.0 | 0.00 | 0.00 | 0.13 | 94 | |
| 20260509064740 | 7 | 146 | 0.0 | 0.0 | 0.00 | 0.00 | 0.10 | 94 | |
| 20260509063740 | 6 | 146 | 0.0 | 4.8 | 0.00 | 0.00 | 0.08 | 94 | |
| 20260509062740 | 6 | 148 | 1.6 | 4.8 | 0.00 | 0.00 | 0.08 | 93 | |
| 20260509061741 | 6 | 82 | 0.0 | 3.2 | 0.00 | 0.00 | 0.05 | 93 | |
| 20260509060740 | 6 | 83 | 0.0 | 3.2 | 0.00 | 0.00 | 0.05 | 93 | |
| 20260509055740 | 6 | 80 | 0.0 | 3.2 | 0.00 | 0.00 | 0.03 | 93 | |
| 20260509054740 | 6 | 80 | 0.0 | 6.4 | 0.00 | 0.00 | 0.03 | 92 | |
| 20260509053740 | 6 | 151 | 3.2 | 3.2 | 0.00 | 0.00 | 0.03 | 92 | |
| 20260509052740 | 6 | 152 | 0.0 | 0.0 | 0.00 | 0.00 | 0.03 | 92 | |
| 20260509051740 | 6 | 152 | 0.0 | 0.0 | 0.00 | 0.00 | 0.00 | 92 | |
| 20260509050740 | 6 | 152 | 0.0 | 0.0 | 0.00 | 0.00 | 0.00 | 92 | |
| 20260509045741 | 6 | 152 | 0.0 | 3.2 | 0.00 | 0.00 | 0.00 | 92 | |
| 20260509044740 | 6 | 161 | 1.6 | 4.8 | 0.00 | 0.00 | 0.00 | 92 | |
| 20260509043740 | 6 | 163 | 0.0 | 1.6 | 0.00 | 0.00 | 0.00 | 92 | |
| 20260509042740 | 6 | 163 | 1.6 | 3.2 | 0.00 | 0.00 | 0.00 | 92 | |
| 20260509041740 | 6 | 214 | 0.0 | 1.6 | 0.00 | 0.00 | 0.00 | 91 | |
| 20260509040740 | 6 | 214 | 1.6 | 1.6 | 0.00 | 0.00 | 0.00 | 91 | |
| 20260509035740 | 6 | 214 | 0.0 | 1.6 | 0.00 | 0.00 | 0.71 | 91 | |
| 20260509034740 | 6 | 214 | 0.0 | 3.2 | 0.00 | 0.00 | 0.71 | 90 | |
| 20260509033740 | 6 | 214 | 1.6 | 1.6 | 0.00 | 0.00 | 0.71 | 90 | |
| 20260509032740 | 6 | 214 | 0.0 | 1.6 | 0.00 | 0.00 | 0.71 | 89 | |
| 20260509031740 | 6 | 214 | 0.0 | 1.6 | 0.00 | 0.00 | 0.71 | 89 | |
| 20260509030740 | 6 | 214 | 1.6 | 3.2 | 0.00 | 0.00 | 0.71 | 89 | |
| 20260509025740 | 7 | 214 | 0.0 | 0.0 | 0.00 | 0.00 | 0.71 | 88 | |
| 20260509024740 | 7 | 214 | 0.0 | 0.0 | 0.00 | 0.00 | 0.71 | 87 | |
| 20260509023740 | 7 | 214 | 0.0 | 0.0 | 0.00 | 0.00 | 0.71 | 86 | |
| 20260509022741 | 8 | 214 | 0.0 | 0.0 | 0.00 | 0.00 | 0.71 | 85 |